Regional Weather Roundup
Issued by NWS Sioux Falls, SD

Home | Current Version | Previous Version | Graphics & Text | Print | Product List | Glossary Off
Versions: 1 2 3 4 5 6 7 8 9 10 11 12 13 14 15 16 17 18 19 20 21 22 23 24 25 26 27 28 29 30 31 32 33 34 35 36 37 38 39 40 41 42 43 44 45 46 47 48 49 50

209
ASUS43 KFSD 310610
RWRFSD

WEATHER ROUNDUP FOR SE SOUTH DAKOTA/SW MINNESOTA/NW IOWA
NATIONAL WEATHER SERVICE SIOUX FALLS SD
100 AM CDT TUE MAY 31 2016

NOTE: "FAIR" INDICATES FEW OR NO CLOUDS BELOW 12,000 FEET WITH NO
SIGNIFICANT WEATHER AND OR OBSTRUCTIONS TO VISIBILITY.


SDZ038>040-050-052>070-310700-
SOUTHEAST SOUTH DAKOTA

CITY           SKY/WX    TMP DP  RH WIND       PRES   REMARKS
CHAMBERLAIN    CLOUDY    60  57  89 W13       29.86S
6HR MIN TEMP:  60; 6HR MAX TEMP:  78;

HURON          CLOUDY    61  57  87 NW14G20   29.80R
6HR MIN TEMP:  61; 6HR MAX TEMP:  80; 6HR PCP:  0.04;

MADISON        CLOUDY    61  61 100 S14       29.85R
MITCHELL       LGT RAIN  63  59  87 W10       29.82R
6HR MIN TEMP:  63; 6HR MAX TEMP:  80; 6HR PCP:  0.05;

SIOUX FALLS    RAIN      61  58  90 W13       29.83F FOG
6HR MIN TEMP:  61; 6HR MAX TEMP:  81; 6HR PCP:  0.12;

WINNER         FAIR      59  54  83 W14       29.90F
YANKTON        CLOUDY    63  57  82 W6        29.84S
$$

MNZ071-072-080-081-089-090-097-098-310700-
SOUTHWEST MINNESOTA

CITY           SKY/WX    TMP DP  RH WIND       PRES   REMARKS
FAIRMONT       CLOUDY    66  55  68 SE14G22   29.86F
JACKSON        FLURRIES  66  54  63 SE15G22   29.86F
LUVERNE        CLOUDY    66  55  68 S14G20    29.82R
MARSHALL       LGT RAIN  66  59  77 S15G21    29.80R
6HR MIN TEMP:  66; 6HR MAX TEMP:  84; 6HR PCP:  0.11;

MONTEVIDEO     CLOUDY    70  61  73 S14G20    29.79S
PIPESTONE      CLOUDY    66  59  77 W15       29.85R
REDWOOD FALLS  LGT RAIN  69  59  70 S14       29.82F
TRACY          TSTM      64  61  90 SE5       29.84F
WINDOM         TSTM      64  57  77 CALM      29.86F
WORTHINGTON    CLOUDY    65  58  78 SE17      29.85S
$$

IAZ001>003-012>014-020>022-031-032-NEZ013-014-SDZ071-310700-
NORTHWEST IOWA

CITY           SKY/WX    TMP DP  RH WIND       PRES   REMARKS
CHEROKEE       CLOUDY    67  56  68 S15G28    29.88R
DENISON        CLOUDY    68  61  77 S12G17    29.85F
ESTHERVILLE    CLOUDY    64  58  80 SE17      29.87F
LE MARS        CLOUDY    68  61  77 S18G25    29.83S
ORANGE CITY    CLOUDY    66  59  77 S16       29.84R
SHELDON        CLOUDY    66  57  72 S17       29.84R
SIOUX CITY     CLOUDY    71  61  70 S16G24    29.83S
6HR MIN TEMP:  69; 6HR MAX TEMP:  86;

SPENCER        LGT RAIN  65  58  78 SE14      29.88R
6HR MIN TEMP:  66; 6HR MAX TEMP:  84; 6HR PCP: TRACE;

STORM LAKE     HVY RAIN  63  55  77 E18       29.92R VSB 1
$$

ABBREVIATIONS USED IN REMARKS
   TC - TEMPERATURE IN CELSIUS
  WCI - WIND CHILL INDEX
   HX - HEAT INDEX
  VSB - VISIBILITY





USA.gov is the U.S. government's official web portal to all federal, state and local government web resources and services.